SCP
-0 0 0 0 0 0 0 0 0 -0 -0 -0 -0 -0 -0 0 0 0 0 0 -0 0 0 0 0 0 0 0 0 0 0 0 0 0 0 -0 0 0 0 0 -0 -0 -0 0 0 0 0 0 0
0 0 0 0 0 0 0 0 0 0 -0 0 0 0 -0 0 0 0 0 -0 -0 0 0 0 0 0 0 0 0 -0 -0 0 0 0 0 0 -0 0 0 0 -0 -0 -0 -0 0 0 0 0 0
0 0 -0 -0 0 0 0 0 0 0 -0 0 0 0 0 0 0 0 0 0 0 0 0 0 0 0 0 0 0 0 0 0 0 0 0 0 0 -0 0 0 0 -0 -0 -0 0 0 0 0 0
0 0 0 -0 0 0 -0 -0 -0 0 0 -0 0 -0 0 0 0 0 0 0 0 0 0 0 0 0 0 0 0 0 0 0 0 0 0 0 0 0 0 0 0 -0 -0 -0 0 0 0 0 0
0 0 0 0 0 0 0 0 0 0 0 -0 0 0 0 0 0 0 0 0 0 0 0 0 0 0 0 0 0 0 0 0 0 0 0 0 0 0 0 0 0 0 -0 -0 0 0 0 0 0
0 0 -0 -0 0 -0 -0 -0 -0 -0 0 0 -0 0 0 0 0 0 0 0 0 0 0 0 0 0 0 0 0 0 0 0 0 0 0 0 0 0 0 0 0 0 -0 -0 0 0 0 0 0
-0 -0 -0 -0 -0 -0 0 -0 0 0 0 0 0 0 0 0 0 0 0 0 0 0 0 0 0 0 0 0 0 0 0 0 0 0 0 0 0 0 0 0 0 0 -0 -0 0 0 0 0 0
-0 -0 0 0 -0 0 -0 -0 -0 0 0 -0 0 0 0 0 0 0 0 0 0 0 0 0 0 0 0 0 0 0 0 0 0 0 0 0 0 0 0 0 0 0 -0 -0 0 0 0 0 0
-0 -0 -0 0 0 0 0 0 0 0 0 0 -0 0 0 0 -0 0 0 0 0 0 0 0 0 0 0 0 0 0 0 0 0 0 0 0 0 0 0 0 0 0 0 0 0 0 0 0 0
-0 -0 0 0 0 0 0 0 0 0 0 0 0 0 -0 0 0 0 0 -0 -0 0 0 0 0 0 0 0 0 0 0 0 0 0 0 0 0 0 0 0 0 0 0 0 0 0 0 0 0
-0 0 0 0 0 0 0 0 0 0 0 0 0 0 0 0 0 0 0 0 0 0 0 0 0 0 0 0 0 0 0 0 0 0 0 0 0 0 0 0 0 0 0 0 0 0 0 0 0
-0 0 0 0 0 0 0 0 0 0 0 0 0 0 0 0 0 0 0 0 0 0 0 0 0 0 0 0 0 0 0 0 0 0 0 0 0 0 0 0 0 0 0 0 0 0 0 0 0
0 0 0 0 0 0 -0 -0 -0 0 0 0 0 0 0 0 0 0 0 0 0 0 0 0 0 0 0 0 0 0 0 0 0 0 0 0 0 0 0 0 0 0 0 0 0 0 0 0 0
0 0 0 0 -0 -0 -0 0 0 0 0 0 0 0 0 0 0 0 0 0 0 0 0 0 0 0 0 0 0 0 0 0 0 0 0 0 0 0 0 0 0 0 0 0 0 0 0 0 0
0 -0 0 0 0 0 0 0 0 0 0 0 0 0 0 0 0 0 0 0 0 0 0 0 0 0 0 0 0 0 0 0 0 0 0 0 0 0 0 0 0 0 0 0 0 0 0 0 0
0 0 0 0 0 0 0 0 0 0 0 0 0 0 0 0 0 0 0 0 0 0 0 0 0 0 0 0 0 0 0 0 0 0 0 0 0 0 0 0 0 0 0 0 0 0 0 0 0
0 0 0 0 0 0 0 0 0 0 0 0 0 0 0 0 0 0 0 0 0 0 0 0 0 0 0 0 0 0 0 0 0 0 0 0 0 0 0 0 0 0 0 0 0 0 0 0 0
0 0 0 0 0 0 0 0 0 0 0 0 0 0 0 0 0 0 0 0 0 0 0 0 0 0 0 0 0 0 0 0 0 0 0 0 0 0 0 0 0 0 0 0 0 0 0 0 0
0 0 0 0 0 0 0 0 0 0 0 0 0 0 0 0 0 0 0 0 0 0 0 0 0 0 0 0 0 0 0 0 0 0 0 0 0 0 0 0 0 0 0 0 0 0 0 0 0
0 0 0 0 0 0 0 0 0 0 0 0 0 0 0 0 0 0 0 0 0 0 0 0 0 0 0 0 0 0 0 0 0 0 0 0 0 0 0 0 0 0 0 0 0 0 0 0 0
0 0 0 0 0 0 0 0 0 0 0 0 0 0 0 0 0 0 0 0 0 0 0 0 0 0 0 0 0 0 0 0 0 0 0 0 0 0 0 0 0 0 0 0 0 0 0 0 0
0 0 0 0 0 0 0 0 0 0 0 0 0 0 0 0 0 0 0 0 -0 0 0 0 0 0 0 0 0 0 0 0 -0 -0 0 0 0 0 0 0 0 0 0 0 0 0 0 0 0
0 0 0 0 0 0 0 0 0 0 0 0 0 0 0 0 0 0 0 0 0 -0 0 0 0 0 0 0 0 0 0 0 0 -0 -0 0 0 0 0 0 0 0 0 0 0 0 0 0 0
0 0 0 0 0 0 0 0 0 0 0 0 0 0 0 0 0 0 0 0 0 0 0 0 0 0 0 0 0 0 0 0 0 -0 -0 -0 -0 0 0 0 0 0 0 0 0 0 0 0 0
0 0 0 0 0 0 0 0 0 0 0 0 0 0 0 0 0 0 0 0 0 0 0 0 0 0 0 0 0 0 0 -0 -0 -0 -0 -0 -0 -0 -0 0 0 0 0 0 0 0 0 0 0
0 0 0 0 0 0 0 0 0 0 0 0 0 0 0 0 0 0 -0 -0 -0 0 0 0 0 0 0 0 0 0 0 0 0 -0 -0 -0 -0 -0 -0 0 0 0 0 0 0 0 0 0 0
0 0 0 0 0 0 0 0 0 0 0 0 0 0 0 0 0 0 -0 -0 -0 0 0 0 0 0 0 0 0 0 0 -0 0 0 -0 -0 -0 -0 -0 -0 -0 0 0 0 0 0 0 0 0
0 0 0 0 0 0 0 0 0 0 0 0 0 0 0 0 -0 -0 -0 -0 -0 -0 0 0 0 0 0 0 0 0 -0 -0 0 -0 -0 0 0 0 0 0 0 -0 0 0 0 0 0 0 0
0 0 0 0 0 0 0 0 0 0 0 0 0 0 0 0 -0 -0 -0 -0 -0 -0 0 0 0 0 0 0 0 0 0 0 0 0 0 0 0 -0 -0 -0 0 -0 -0 -0 -0 0 0 0 0
0 0 0 0 0 0 0 0 0 0 0 0 0 0 0 0 0 -0 0 0 -0 -0 -0 -0 0 0 0 0 0 0 0 0 0 0 0 0 0 -0 -0 -0 0 0 0 0 0 0 0 0 0
Wind_Speed_500mb
8 7 11 7 8 10 6 6 3 18 7 14 27 33 34 27 8 4 40 46 52 55 23 5 9 15 17 20 18 19 21 21 17 15 19 20 20 19 17 10 3 6 10 2 17 26 34 27 30
13 12 7 8 9 7 3 7 9 7 9 6 12 10 21 8 35 10 43 50 48 48 31 9 4 10 19 21 22 21 21 21 22 18 21 23 24 24 23 16 9 4 3 9 7 14 20 28 31
18 11 9 8 7 7 5 5 7 4 23 9 9 20 10 14 21 29 38 41 39 39 35 18 10 21 20 24 22 21 23 25 26 24 23 27 28 25 28 24 15 8 4 10 5 13 18 26 26
15 10 18 9 11 2 7 5 6 0 5 11 19 17 17 22 17 34 38 40 36 32 28 22 23 35 31 30 25 23 26 29 32 32 31 31 33 35 36 33 23 14 7 9 9 15 20 23 25
11 12 10 9 4 8 6 3 7 6 7 12 6 12 16 19 27 33 37 38 40 35 30 29 25 29 36 34 32 30 30 31 33 35 37 40 37 35 40 44 29 17 11 12 13 14 25 25 26
9 9 8 8 10 5 3 2 5 7 8 6 11 12 11 26 35 42 41 38 38 38 34 29 31 30 27 35 38 43 38 37 36 37 35 38 38 32 38 42 32 19 12 11 15 21 24 31 29
12 8 5 6 9 4 6 5 7 11 9 14 7 5 1 33 43 44 43 39 37 36 36 33 31 33 34 33 34 38 48 43 39 39 37 36 37 36 38 44 35 22 13 9 14 18 26 34 33
11 11 7 2 9 5 4 7 13 13 9 11 7 8 6 40 44 43 42 44 46 46 44 41 38 32 36 38 39 39 41 44 47 43 41 37 37 45 45 45 40 30 20 12 15 15 25 35 35
8 9 6 12 12 9 11 6 11 15 23 27 13 13 22 33 40 45 49 50 54 55 57 53 48 45 41 39 43 45 43 41 47 52 47 40 40 46 50 47 47 37 28 16 19 17 19 32 35
13 8 10 6 11 9 13 9 14 7 9 10 9 13 22 33 47 56 63 71 74 73 62 58 60 54 48 46 43 46 51 50 49 46 51 49 46 45 52 54 49 45 41 29 27 24 20 28 35
10 7 10 4 17 24 14 11 8 24 6 4 6 21 31 39 45 53 61 68 73 74 73 69 62 60 60 55 52 47 51 52 56 50 51 55 53 50 50 56 56 57 45 42 36 36 31 29 33
14 8 4 16 16 14 10 16 11 3 9 7 9 21 27 40 50 57 61 67 70 71 71 72 70 66 63 63 58 58 54 56 57 59 54 53 63 62 56 60 64 65 52 48 45 46 42 41 39
13 7 14 15 14 19 16 10 13 16 14 6 9 18 32 41 49 55 60 66 73 78 78 75 73 71 66 66 67 62 61 58 62 63 63 58 56 71 66 64 66 67 56 55 52 52 49 48 46
18 29 22 13 14 15 16 11 2 11 8 1 12 24 35 44 52 58 65 73 78 81 80 79 73 64 65 68 68 65 61 60 60 65 64 63 65 54 77 71 71 70 68 64 56 52 49 45 45
30 13 9 7 7 6 17 6 6 14 10 5 16 26 36 46 53 60 67 76 81 79 76 70 67 64 62 63 62 62 58 52 56 61 63 64 67 66 45 81 76 79 74 65 57 53 51 49 46
10 9 8 4 7 4 10 8 7 11 11 5 18 30 38 47 55 62 70 78 78 77 73 67 61 61 61 60 61 60 58 53 49 53 58 61 68 75 53 68 79 85 81 69 62 58 58 55 50
10 6 6 3 4 6 8 5 10 9 6 6 20 30 41 50 56 63 68 77 80 75 71 66 65 65 69 63 60 61 56 55 47 43 50 54 61 72 82 50 69 87 83 79 70 67 64 61 55
13 9 4 8 9 6 7 8 9 10 5 8 19 29 41 50 56 58 64 74 80 79 73 65 67 69 68 66 63 59 60 51 37 36 40 44 50 54 62 73 67 83 88 79 82 74 73 68 59
14 11 8 1 4 7 11 9 15 17 5 7 20 31 39 47 51 54 61 74 81 78 72 67 66 69 72 70 68 64 53 42 37 34 32 32 35 41 56 58 40 74 76 81 76 77 78 78 69
9 9 4 2 2 2 3 13 10 18 5 6 16 26 36 44 50 56 63 73 76 73 67 66 62 65 73 68 58 52 48 36 31 25 19 14 16 22 40 42 50 50 63 78 78 80 85 87 84
5 9 9 3 2 5 9 9 6 7 12 6 12 19 28 36 45 53 57 68 71 70 64 59 61 65 63 61 57 44 40 38 34 38 30 23 11 1 16 38 32 35 51 79 73 86 91 89 75
7 4 10 10 6 5 5 8 8 8 9 7 7 16 26 32 38 47 52 65 67 62 56 59 57 63 57 60 47 48 39 44 40 37 29 24 14 10 4 9 21 30 22 41 61 52 59 78 76
7 6 8 5 8 6 1 4 7 8 11 12 5 9 20 28 35 40 46 50 61 67 70 71 67 65 62 58 58 66 67 64 47 46 42 36 26 25 21 6 8 9 13 23 23 25 37 63 67
18 10 10 7 5 3 2 8 9 10 13 11 10 8 16 23 27 33 34 42 50 59 65 73 77 78 81 77 81 82 87 82 78 80 72 65 56 48 40 27 20 20 22 18 22 24 26 27 13
4 9 3 8 4 9 6 3 13 10 9 16 25 17 16 21 26 35 37 44 56 66 71 75 78 78 76 75 77 79 83 87 93 93 91 90 88 80 74 61 50 41 33 23 18 17 15 16 17
9 4 9 13 6 4 6 11 7 6 20 29 26 22 20 21 28 37 41 49 52 53 57 59 65 68 73 77 81 84 81 82 80 79 80 78 78 76 73 71 68 62 58 54 53 50 44 41 33
10 8 5 13 5 5 8 9 2 8 10 24 27 25 23 24 26 31 35 38 46 50 55 57 61 62 66 67 67 70 69 74 76 80 84 81 73 66 60 56 57 56 53 52 50 44 38 36 40
4 6 6 4 4 8 8 10 9 23 25 19 25 35 31 27 25 25 29 35 37 39 43 47 52 57 59 60 61 63 62 62 62 61 62 59 55 51 48 48 47 40 36 33 32 32 29 29 27
7 6 2 3 7 9 2 11 5 29 34 34 40 48 42 36 32 28 27 26 28 29 32 38 39 43 48 50 51 52 54 53 52 53 52 51 47 46 45 43 38 36 36 36 35 31 27 24 20
5 12 11 8 10 6 3 11 3 9 38 46 52 55 47 40 36 30 26 23 21 19 22 28 31 36 43 45 44 45 46 49 49 51 50 48 48 45 44 41 38 37 35 32 30 31 31 29 26
Wind_Direction_500mb
149 140 130 107 61 64 65 47 271 8 47 60 61 83 95 72 9 50 337 345 347 348 11 62 3 328 307 301 300 290 268 259 259 248 229 233 227 215 219 196 157 58 40 163 193 188 189 197 196
148 137 104 88 79 69 48 348 4 26 297 46 64 87 47 75 25 342 346 353 349 348 3 7 289 353 292 284 287 287 274 260 257 257 241 237 234 232 227 205 192 169 15 359 234 213 191 187 189
146 138 67 75 78 114 132 344 301 311 56 62 110 59 62 339 5 347 346 342 347 344 355 343 284 291 282 255 267 274 271 265 266 259 255 245 244 236 225 222 208 208 303 332 266 215 195 188 193
143 94 71 69 94 69 154 252 250 178 75 64 116 85 105 41 9 353 352 348 346 343 343 319 306 303 290 276 259 256 260 267 270 273 267 258 251 244 240 229 213 217 264 301 260 226 205 196 192
115 83 67 83 91 158 207 129 143 79 110 59 129 128 121 16 5 359 357 355 352 352 339 327 310 306 295 281 274 260 247 254 263 272 271 263 261 255 250 218 215 221 253 273 259 236 216 204 200
70 71 87 152 182 180 202 181 69 65 77 65 88 124 131 9 3 3 357 354 353 350 348 330 313 306 292 285 272 267 255 245 251 264 268 266 259 258 232 214 213 223 247 270 262 233 225 210 208
98 74 91 80 133 156 181 115 66 58 50 35 60 86 129 355 3 358 356 354 352 346 338 337 326 309 299 290 279 274 267 257 249 256 262 263 249 243 227 215 217 219 213 276 293 235 223 215 214
88 90 89 99 172 165 104 96 82 55 47 66 46 34 346 351 353 352 351 352 352 348 343 334 328 322 307 292 282 270 262 260 255 248 253 254 251 238 238 226 221 221 221 249 287 267 235 216 216
89 67 137 178 160 149 139 111 67 79 80 64 70 52 358 349 347 349 349 347 346 348 343 337 331 322 316 302 290 278 264 258 248 251 251 244 246 244 236 234 223 227 231 232 263 275 246 222 223
63 86 178 175 156 147 138 111 123 113 68 62 56 18 357 353 353 353 351 348 347 344 344 337 329 324 317 311 297 285 277 265 256 252 247 249 244 244 240 236 236 234 237 227 251 259 258 237 235
41 125 167 96 122 129 123 104 101 122 48 67 13 358 356 354 352 351 351 350 347 342 339 338 331 324 317 311 306 292 276 270 261 248 241 245 245 243 242 234 232 234 229 231 242 248 253 256 245
92 66 112 136 103 104 106 121 93 113 128 126 33 359 352 358 358 354 350 346 343 342 339 335 331 325 318 313 306 298 287 269 263 254 246 233 242 240 237 235 233 235 233 230 235 247 253 254 250
79 125 94 130 116 105 123 109 129 119 136 133 6 357 5 0 355 353 350 349 347 344 341 337 332 328 322 314 306 299 290 280 263 258 248 242 239 239 236 232 232 234 235 243 241 247 250 251 246
120 111 109 118 133 130 122 136 68 171 167 200 356 7 7 1 358 353 354 353 349 347 343 339 337 338 333 326 316 306 297 282 272 258 254 241 232 245 236 233 228 233 235 242 244 246 247 245 246
114 82 82 67 135 135 142 142 144 170 193 317 0 5 4 2 -0 2 360 357 353 350 346 352 349 349 342 337 332 326 316 297 280 266 256 248 235 230 239 240 232 234 236 240 239 240 238 241 246
76 67 124 244 154 159 152 246 176 188 222 322 4 5 0 3 6 5 2 360 359 353 349 354 352 347 345 340 338 329 320 308 293 280 265 254 241 234 238 242 235 240 238 238 238 238 237 241 247
11 167 156 198 180 153 165 235 177 175 189 15 10 6 4 2 3 5 3 2 359 353 350 352 350 347 345 343 337 329 327 316 300 290 276 261 250 236 234 245 236 242 246 234 238 238 239 242 246
186 168 165 184 200 168 194 233 188 178 161 33 11 9 8 9 9 7 5 5 3 3 1 359 354 351 347 350 350 341 331 329 314 304 292 267 255 244 232 230 235 238 243 241 236 237 238 241 244
125 120 135 162 193 179 220 235 204 180 130 35 17 12 10 11 11 7 7 10 4 10 10 11 1 358 358 355 354 348 342 332 325 316 304 280 260 247 231 231 256 251 247 244 247 245 242 241 240
92 112 112 15 10 229 306 264 194 179 164 64 26 19 13 10 12 10 14 14 13 14 14 12 7 9 6 0 1 355 350 355 355 353 346 342 279 255 232 234 254 264 258 250 257 254 249 246 243
49 143 172 149 99 43 342 285 152 189 149 120 44 30 24 19 11 16 22 21 19 19 20 25 25 24 19 9 8 14 15 22 24 41 62 61 66 181 224 233 270 289 270 252 255 263 245 246 244
165 165 123 122 108 222 33 277 225 193 191 187 41 30 26 25 25 26 30 32 33 29 29 34 36 40 27 20 31 36 40 38 55 63 52 54 71 91 142 230 271 282 313 254 244 245 254 278 239
160 128 104 87 91 51 93 79 269 133 222 207 140 53 40 38 35 34 40 40 46 49 46 47 43 48 41 47 52 56 56 55 57 65 62 79 71 93 94 78 336 323 303 284 293 308 267 260 249
144 82 56 58 88 27 129 136 262 189 197 148 159 100 57 55 54 47 50 44 47 49 51 52 54 52 53 50 53 60 62 63 68 70 71 67 65 68 78 83 88 83 91 83 29 25 353 347 301
82 110 344 347 13 220 152 75 255 190 174 155 160 134 88 74 62 57 64 58 60 61 60 59 57 56 56 54 55 54 57 56 56 59 62 65 66 66 68 69 69 67 61 48 23 10 324 331 322
183 192 167 208 207 228 130 230 263 150 140 139 145 135 116 100 86 75 78 82 74 62 57 51 51 53 52 58 58 58 59 57 56 54 56 57 61 59 59 62 66 62 59 53 52 53 47 45 43
184 199 134 104 29 48 213 266 259 131 151 159 160 157 144 123 112 98 89 80 73 65 58 54 51 51 50 52 52 51 50 50 51 53 55 57 57 54 51 55 61 61 56 56 60 57 49 39 36
188 152 88 8 176 252 268 273 228 196 195 186 180 179 165 150 134 119 104 92 77 67 60 54 49 49 48 47 49 50 49 51 52 54 54 53 53 52 51 51 52 52 52 52 54 55 50 42 45
153 193 185 146 168 179 225 256 207 194 187 183 187 183 174 166 154 141 123 107 91 75 63 57 53 48 45 42 38 37 42 45 45 47 48 49 48 48 47 48 48 48 46 40 38 40 41 42 43
195 196 178 146 212 235 157 270 329 211 182 178 183 184 179 173 164 155 142 128 112 90 71 62 52 40 32 27 32 37 33 34 35 37 37 36 36 35 35 32 30 29 30 33 33 31 32 32 30
Wind_Speed_850mb
8 7 11 7 8 10 6 6 3 18 7 14 27 33 34 27 8 4 40 46 52 55 23 5 9 15 17 20 18 19 21 21 17 15 19 20 20 19 17 10 3 6 10 2 17 26 34 27 30
13 12 7 8 9 7 3 7 9 7 9 6 12 10 21 8 35 10 43 50 48 48 31 9 4 10 19 21 22 21 21 21 22 18 21 23 24 24 23 16 9 4 3 9 7 14 20 28 31
18 11 9 8 7 7 5 5 7 4 23 9 9 20 10 14 21 29 38 41 39 39 35 18 10 21 20 24 22 21 23 25 26 24 23 27 28 25 28 24 15 8 4 10 5 13 18 26 26
15 10 18 9 11 2 7 5 6 0 5 11 19 17 17 22 17 34 38 40 36 32 28 22 23 35 31 30 25 23 26 29 32 32 31 31 33 35 36 33 23 14 7 9 9 15 20 23 25
11 12 10 9 4 8 6 3 7 6 7 12 6 12 16 19 27 33 37 38 40 35 30 29 25 29 36 34 32 30 30 31 33 35 37 40 37 35 40 44 29 17 11 12 13 14 25 25 26
9 9 8 8 10 5 3 2 5 7 8 6 11 12 11 26 35 42 41 38 38 38 34 29 31 30 27 35 38 43 38 37 36 37 35 38 38 32 38 42 32 19 12 11 15 21 24 31 29
12 8 5 6 9 4 6 5 7 11 9 14 7 5 1 33 43 44 43 39 37 36 36 33 31 33 34 33 34 38 48 43 39 39 37 36 37 36 38 44 35 22 13 9 14 18 26 34 33
11 11 7 2 9 5 4 7 13 13 9 11 7 8 6 40 44 43 42 44 46 46 44 41 38 32 36 38 39 39 41 44 47 43 41 37 37 45 45 45 40 30 20 12 15 15 25 35 35
8 9 6 12 12 9 11 6 11 15 23 27 13 13 22 33 40 45 49 50 54 55 57 53 48 45 41 39 43 45 43 41 47 52 47 40 40 46 50 47 47 37 28 16 19 17 19 32 35
13 8 10 6 11 9 13 9 14 7 9 10 9 13 22 33 47 56 63 71 74 73 62 58 60 54 48 46 43 46 51 50 49 46 51 49 46 45 52 54 49 45 41 29 27 24 20 28 35
10 7 10 4 17 24 14 11 8 24 6 4 6 21 31 39 45 53 61 68 73 74 73 69 62 60 60 55 52 47 51 52 56 50 51 55 53 50 50 56 56 57 45 42 36 36 31 29 33
14 8 4 16 16 14 10 16 11 3 9 7 9 21 27 40 50 57 61 67 70 71 71 72 70 66 63 63 58 58 54 56 57 59 54 53 63 62 56 60 64 65 52 48 45 46 42 41 39
13 7 14 15 14 19 16 10 13 16 14 6 9 18 32 41 49 55 60 66 73 78 78 75 73 71 66 66 67 62 61 58 62 63 63 58 56 71 66 64 66 67 56 55 52 52 49 48 46
18 29 22 13 14 15 16 11 2 11 8 1 12 24 35 44 52 58 65 73 78 81 80 79 73 64 65 68 68 65 61 60 60 65 64 63 65 54 77 71 71 70 68 64 56 52 49 45 45
30 13 9 7 7 6 17 6 6 14 10 5 16 26 36 46 53 60 67 76 81 79 76 70 67 64 62 63 62 62 58 52 56 61 63 64 67 66 45 81 76 79 74 65 57 53 51 49 46
10 9 8 4 7 4 10 8 7 11 11 5 18 30 38 47 55 62 70 78 78 77 73 67 61 61 61 60 61 60 58 53 49 53 58 61 68 75 53 68 79 85 81 69 62 58 58 55 50
10 6 6 3 4 6 8 5 10 9 6 6 20 30 41 50 56 63 68 77 80 75 71 66 65 65 69 63 60 61 56 55 47 43 50 54 61 72 82 50 69 87 83 79 70 67 64 61 55
13 9 4 8 9 6 7 8 9 10 5 8 19 29 41 50 56 58 64 74 80 79 73 65 67 69 68 66 63 59 60 51 37 36 40 44 50 54 62 73 67 83 88 79 82 74 73 68 59
14 11 8 1 4 7 11 9 15 17 5 7 20 31 39 47 51 54 61 74 81 78 72 67 66 69 72 70 68 64 53 42 37 34 32 32 35 41 56 58 40 74 76 81 76 77 78 78 69
9 9 4 2 2 2 3 13 10 18 5 6 16 26 36 44 50 56 63 73 76 73 67 66 62 65 73 68 58 52 48 36 31 25 19 14 16 22 40 42 50 50 63 78 78 80 85 87 84
5 9 9 3 2 5 9 9 6 7 12 6 12 19 28 36 45 53 57 68 71 70 64 59 61 65 63 61 57 44 40 38 34 38 30 23 11 1 16 38 32 35 51 79 73 86 91 89 75
7 4 10 10 6 5 5 8 8 8 9 7 7 16 26 32 38 47 52 65 67 62 56 59 57 63 57 60 47 48 39 44 40 37 29 24 14 10 4 9 21 30 22 41 61 52 59 78 76
7 6 8 5 8 6 1 4 7 8 11 12 5 9 20 28 35 40 46 50 61 67 70 71 67 65 62 58 58 66 67 64 47 46 42 36 26 25 21 6 8 9 13 23 23 25 37 63 67
18 10 10 7 5 3 2 8 9 10 13 11 10 8 16 23 27 33 34 42 50 59 65 73 77 78 81 77 81 82 87 82 78 80 72 65 56 48 40 27 20 20 22 18 22 24 26 27 13
4 9 3 8 4 9 6 3 13 10 9 16 25 17 16 21 26 35 37 44 56 66 71 75 78 78 76 75 77 79 83 87 93 93 91 90 88 80 74 61 50 41 33 23 18 17 15 16 17
9 4 9 13 6 4 6 11 7 6 20 29 26 22 20 21 28 37 41 49 52 53 57 59 65 68 73 77 81 84 81 82 80 79 80 78 78 76 73 71 68 62 58 54 53 50 44 41 33
10 8 5 13 5 5 8 9 2 8 10 24 27 25 23 24 26 31 35 38 46 50 55 57 61 62 66 67 67 70 69 74 76 80 84 81 73 66 60 56 57 56 53 52 50 44 38 36 40
4 6 6 4 4 8 8 10 9 23 25 19 25 35 31 27 25 25 29 35 37 39 43 47 52 57 59 60 61 63 62 62 62 61 62 59 55 51 48 48 47 40 36 33 32 32 29 29 27
7 6 2 3 7 9 2 11 5 29 34 34 40 48 42 36 32 28 27 26 28 29 32 38 39 43 48 50 51 52 54 53 52 53 52 51 47 46 45 43 38 36 36 36 35 31 27 24 20
5 12 11 8 10 6 3 11 3 9 38 46 52 55 47 40 36 30 26 23 21 19 22 28 31 36 43 45 44 45 46 49 49 51 50 48 48 45 44 41 38 37 35 32 30 31 31 29 26
Wind_Direction_850mb
149 140 130 107 61 64 65 47 271 8 47 60 61 83 95 72 9 50 337 345 347 348 11 62 3 328 307 301 300 290 268 259 259 248 229 233 227 215 219 196 157 58 40 163 193 188 189 197 196
148 137 104 88 79 69 48 348 4 26 297 46 64 87 47 75 25 342 346 353 349 348 3 7 289 353 292 284 287 287 274 260 257 257 241 237 234 232 227 205 192 169 15 359 234 213 191 187 189
146 138 67 75 78 114 132 344 301 311 56 62 110 59 62 339 5 347 346 342 347 344 355 343 284 291 282 255 267 274 271 265 266 259 255 245 244 236 225 222 208 208 303 332 266 215 195 188 193
143 94 71 69 94 69 154 252 250 178 75 64 116 85 105 41 9 353 352 348 346 343 343 319 306 303 290 276 259 256 260 267 270 273 267 258 251 244 240 229 213 217 264 301 260 226 205 196 192
115 83 67 83 91 158 207 129 143 79 110 59 129 128 121 16 5 359 357 355 352 352 339 327 310 306 295 281 274 260 247 254 263 272 271 263 261 255 250 218 215 221 253 273 259 236 216 204 200
70 71 87 152 182 180 202 181 69 65 77 65 88 124 131 9 3 3 357 354 353 350 348 330 313 306 292 285 272 267 255 245 251 264 268 266 259 258 232 214 213 223 247 270 262 233 225 210 208
98 74 91 80 133 156 181 115 66 58 50 35 60 86 129 355 3 358 356 354 352 346 338 337 326 309 299 290 279 274 267 257 249 256 262 263 249 243 227 215 217 219 213 276 293 235 223 215 214
88 90 89 99 172 165 104 96 82 55 47 66 46 34 346 351 353 352 351 352 352 348 343 334 328 322 307 292 282 270 262 260 255 248 253 254 251 238 238 226 221 221 221 249 287 267 235 216 216
89 67 137 178 160 149 139 111 67 79 80 64 70 52 358 349 347 349 349 347 346 348 343 337 331 322 316 302 290 278 264 258 248 251 251 244 246 244 236 234 223 227 231 232 263 275 246 222 223
63 86 178 175 156 147 138 111 123 113 68 62 56 18 357 353 353 353 351 348 347 344 344 337 329 324 317 311 297 285 277 265 256 252 247 249 244 244 240 236 236 234 237 227 251 259 258 237 235
41 125 167 96 122 129 123 104 101 122 48 67 13 358 356 354 352 351 351 350 347 342 339 338 331 324 317 311 306 292 276 270 261 248 241 245 245 243 242 234 232 234 229 231 242 248 253 256 245
92 66 112 136 103 104 106 121 93 113 128 126 33 359 352 358 358 354 350 346 343 342 339 335 331 325 318 313 306 298 287 269 263 254 246 233 242 240 237 235 233 235 233 230 235 247 253 254 250
79 125 94 130 116 105 123 109 129 119 136 133 6 357 5 0 355 353 350 349 347 344 341 337 332 328 322 314 306 299 290 280 263 258 248 242 239 239 236 232 232 234 235 243 241 247 250 251 246
120 111 109 118 133 130 122 136 68 171 167 200 356 7 7 1 358 353 354 353 349 347 343 339 337 338 333 326 316 306 297 282 272 258 254 241 232 245 236 233 228 233 235 242 244 246 247 245 246
114 82 82 67 135 135 142 142 144 170 193 317 0 5 4 2 -0 2 360 357 353 350 346 352 349 349 342 337 332 326 316 297 280 266 256 248 235 230 239 240 232 234 236 240 239 240 238 241 246
76 67 124 244 154 159 152 246 176 188 222 322 4 5 0 3 6 5 2 360 359 353 349 354 352 347 345 340 338 329 320 308 293 280 265 254 241 234 238 242 235 240 238 238 238 238 237 241 247
11 167 156 198 180 153 165 235 177 175 189 15 10 6 4 2 3 5 3 2 359 353 350 352 350 347 345 343 337 329 327 316 300 290 276 261 250 236 234 245 236 242 246 234 238 238 239 242 246
186 168 165 184 200 168 194 233 188 178 161 33 11 9 8 9 9 7 5 5 3 3 1 359 354 351 347 350 350 341 331 329 314 304 292 267 255 244 232 230 235 238 243 241 236 237 238 241 244
125 120 135 162 193 179 220 235 204 180 130 35 17 12 10 11 11 7 7 10 4 10 10 11 1 358 358 355 354 348 342 332 325 316 304 280 260 247 231 231 256 251 247 244 247 245 242 241 240
92 112 112 15 10 229 306 264 194 179 164 64 26 19 13 10 12 10 14 14 13 14 14 12 7 9 6 0 1 355 350 355 355 353 346 342 279 255 232 234 254 264 258 250 257 254 249 246 243
49 143 172 149 99 43 342 285 152 189 149 120 44 30 24 19 11 16 22 21 19 19 20 25 25 24 19 9 8 14 15 22 24 41 62 61 66 181 224 233 270 289 270 252 255 263 245 246 244
165 165 123 122 108 222 33 277 225 193 191 187 41 30 26 25 25 26 30 32 33 29 29 34 36 40 27 20 31 36 40 38 55 63 52 54 71 91 142 230 271 282 313 254 244 245 254 278 239
160 128 104 87 91 51 93 79 269 133 222 207 140 53 40 38 35 34 40 40 46 49 46 47 43 48 41 47 52 56 56 55 57 65 62 79 71 93 94 78 336 323 303 284 293 308 267 260 249
144 82 56 58 88 27 129 136 262 189 197 148 159 100 57 55 54 47 50 44 47 49 51 52 54 52 53 50 53 60 62 63 68 70 71 67 65 68 78 83 88 83 91 83 29 25 353 347 301
82 110 344 347 13 220 152 75 255 190 174 155 160 134 88 74 62 57 64 58 60 61 60 59 57 56 56 54 55 54 57 56 56 59 62 65 66 66 68 69 69 67 61 48 23 10 324 331 322
183 192 167 208 207 228 130 230 263 150 140 139 145 135 116 100 86 75 78 82 74 62 57 51 51 53 52 58 58 58 59 57 56 54 56 57 61 59 59 62 66 62 59 53 52 53 47 45 43
184 199 134 104 29 48 213 266 259 131 151 159 160 157 144 123 112 98 89 80 73 65 58 54 51 51 50 52 52 51 50 50 51 53 55 57 57 54 51 55 61 61 56 56 60 57 49 39 36
188 152 88 8 176 252 268 273 228 196 195 186 180 179 165 150 134 119 104 92 77 67 60 54 49 49 48 47 49 50 49 51 52 54 54 53 53 52 51 51 52 52 52 52 54 55 50 42 45
153 193 185 146 168 179 225 256 207 194 187 183 187 183 174 166 154 141 123 107 91 75 63 57 53 48 45 42 38 37 42 45 45 47 48 49 48 48 47 48 48 48 46 40 38 40 41 42 43
195 196 178 146 212 235 157 270 329 211 182 178 183 184 179 173 164 155 142 128 112 90 71 62 52 40 32 27 32 37 33 34 35 37 37 36 36 35 35 32 30 29 30 33 33 31 32 32 30